Hourly Data Report for October 01, 2017

All times are specified in Local Standard Time (LST). Add 1 hour to adjust for Daylight Saving Time where and when it is observed.

EMERSON AUTO
MANITOBA

49°00'00.000" N
97°14'15.000" W
242.00 m
5020881
71560
WEX

Download Data

Hourly Data (October 2017)
Hourly Data Report for October 1, 2017
Temp Definition
°C
Dew Point Temp Definition
°C
Rel Hum Definition
%
Wind Dir Definition
10's deg

Wind Spd Definition
km/h
Visibility Definition
km
Stn Press Definition
kPa
Hmdx Definition


Wind Chill Definition


Weather Definition


TIME
00:00 15.9 10.0 68 15 22   98.01     LegendNANA
01:00 15.2 10.0 71 15 18   97.94     LegendNANA
02:00 14.9 10.1 73 15 21   97.85     LegendNANA
03:00 14.3 10.0 75 15 19   97.77     LegendNANA
04:00 13.9 10.1 78 15 18   97.71     LegendNANA
05:00 14.1 10.2 77 15 18   97.64     LegendNANA
06:00 13.9 10.1 78 14 21   97.61     LegendNANA
07:00 14.1 10.3 78 14 23   97.63     LegendNANA
08:00 15.0 10.6 75 15 20   97.62     LegendNANA
09:00 15.6 11.6 77 15 27   97.59     LegendNANA
10:00 14.5 12.0 85 15 25   97.56     LegendNANA
11:00 14.1 11.8 86 15 29   97.56     LegendNANA
12:00 13.8 11.9 89 14 22   97.49     LegendNANA
13:00 13.4 12.1 92 14 21   97.41     LegendNANA
14:00 13.9 12.6 92 14 19   97.36     LegendNANA
15:00 14.0 13.0 94 16 20   97.31     LegendNANA
16:00 14.5 13.1 91 16 22   97.30     LegendNANA
17:00 14.8 13.0 89 16 25   97.30     LegendNANA
18:00 14.3 13.0 92 16 27   97.34     LegendNANA
19:00 14.0 13.1 94 15 18   97.34     LegendNANA
20:00 13.9 13.4 97 15 16   97.43     LegendNANA
21:00 14.0 13.4 96 14 14   97.40     LegendNANA
22:00 14.3 13.5 95 14 11   97.36     LegendNANA
23:00 15.0 13.8 93 15 20   97.42     LegendNANA

Notes on Data Quality.

Legend

  • E = Estimated
  • M = Missing
  • NA = Not Available
  • ‡ = Partner data that is not subject to review by the National Climate Archives
Date modified: